Location: Arbon
(43.0005°N, 0.7472°E)
Time: 16:55:36
(UTC+00:00)

Cosmos 2227 Rocket - Pass Details

Date: 07 August 2020
Orbit: 840 x 844 km, 71.0° (Epoch: 23 September)

Event Time Altitude Azimuth Distance (km) Brightness Sun altitude
Exits shadow 01:33:17 64° 126° (SE) 933 2.2 -27.1°
Maximum altitude 01:33:33 65° 110° (ESE) 927 2.3 -27.1°
Drops below altitude 10° 01:39:09 10° 30° (NNE) 2,470 5.6 -26.7°
Sets 01:41:37 0° 28° (NNE) 3,409 6.7 -26.5°
